Thermal, CA

5:55 AM PST on January 16, 2018 (GMT -0800)
Desert Resorts Regional

Weather History for KTRM - October, 2012

Change the Weather History Date:

Tuesday, October 16, 2012

  Actual Average Record
Temperature  
Mean Temperature 78 °F 73 °F  
Max Temperature 97 °F 91 °F 107 °F (1958)
Min Temperature 58 °F 55 °F 43 °F (1994)
Degree Days  
Heating Degree Days 0 0  
Month to date heating degree days 0 0  
Since 1 July heating degree days 0 0  
Cooling Degree Days 13 8  
Month to date cooling degree days 254 170  
Year to date cooling degree days 4113 3568  
Growing Degree Days 26 (Base 50)    
Moisture  
Dew Point 47 °F    
Average Humidity 39    
Maximum Humidity 62    
Minimum Humidity 16    
Precipitation  
Precipitation 0.00 in 0.01 in 0.09 in (2005)
Month to date precipitation 0.00 0.12  
Year to date precipitation 2.40 2.51  
Since 1 July precipitation 2.04  
Snow  
Snow 0.00 in - - ()
Month to date snowfall 0.0  
Year to date snowfall 0.0  
Snow Depth 0.00 in    
Sea Level Pressure  
Sea Level Pressure 29.75 in    
Wind  
Wind Speed 4 mph (ENE)    
Max Wind Speed 12 mph    
Max Gust Speed 16 mph    
Visibility 10 miles    
Events      
T = Trace of Precipitation, MM = Missing Value Source: NWS Daily Summary

Daily Weather History Graph

Daily Weather History Graph

Search for Another Location

Airport or City:

Trip Planner

Search our weather history database for the weather conditions in past years. The results will help you decide how hot, cold, wet, or windy it might be!

Date:

Astronomy

Oct. 16, 2012 Rise Set
Actual Time 6:50 AM PDT 6:08 PM PDT
Civil Twilight 6:25 AM PDT 6:34 PM PDT
Nautical Twilight 5:56 AM PDT 7:02 PM PDT
Astronomical Twilight 5:27 AM PDT 7:31 PM PDT
Moon 8:12 AM PDT 7:04 PM PDT
Length of Visible Light 12h 08m
Length of Day
11h 18m
New Moon, 2% of the Moon is Illuminated
Oct 16
New Moon
Oct 21
First Quarter
Oct 29
Full
Nov 6
Last Quarter
Nov 13
New

Hourly Weather History & Observations

Time (PDT) Temp. Heat Index Dew Point Humidity Pressure Visibility Wind Dir Wind Speed Gust Speed Precip Events Conditions
12:52 AM 71.1 °F - 46.0 °F 41% 29.81 in 10.0 mi North 4.6 mph - N/A   Clear
1:52 AM 63.0 °F - 48.0 °F 58% 29.80 in 10.0 mi Calm Calm - N/A   Clear
3:52 AM 70.0 °F - 44.1 °F 39% 29.78 in 10.0 mi North 6.9 mph - N/A   Clear
4:52 AM 71.1 °F - 42.1 °F 35% 29.78 in 10.0 mi North 3.5 mph - N/A   Clear
5:52 AM 66.0 °F - 43.0 °F 43% 29.81 in 10.0 mi North 4.6 mph - N/A   Clear
6:52 AM 57.9 °F - 45.0 °F 62% 29.80 in 10.0 mi Calm Calm - N/A   Clear
7:52 AM 66.9 °F - 46.9 °F 49% 29.81 in 10.0 mi Calm Calm - N/A   Clear
8:52 AM 79.0 °F - 46.9 °F 32% 29.82 in 10.0 mi Calm Calm - N/A   Clear
9:52 AM 84.9 °F - 43.0 °F 23% 29.85 in 10.0 mi Calm Calm - N/A   Clear
10:52 AM 90.0 °F - 43.0 °F 19% 29.80 in 10.0 mi Calm Calm - N/A   Clear
11:52 AM 93.0 °F - 46.0 °F 20% 29.78 in 10.0 mi SE 4.6 mph - N/A   Clear
12:52 PM 93.0 °F 90.6 °F 53.1 °F 26% 29.75 in 10.0 mi SSE 5.8 mph - N/A   Clear
1:52 PM 95.0 °F - 46.0 °F 19% 29.72 in 10.0 mi SSE 8.1 mph - N/A   Clear
2:52 PM 96.1 °F - 43.0 °F 16% 29.70 in 10.0 mi SE 11.5 mph - N/A   Clear
3:52 PM 96.1 °F - 42.1 °F 15% 29.68 in 10.0 mi SSE 10.4 mph - N/A   Clear
4:52 PM 93.9 °F - 43.0 °F 17% 29.68 in 10.0 mi SE 10.4 mph - N/A   Clear
5:52 PM 87.1 °F - 46.0 °F 24% 29.67 in 10.0 mi South 4.6 mph - N/A   Clear
6:52 PM 79.0 °F - 53.1 °F 40% 29.68 in 10.0 mi West 3.5 mph - N/A   Clear
7:52 PM 77.0 °F - 52.0 °F 42% 29.69 in 10.0 mi North 4.6 mph - N/A   Clear
8:52 PM 75.0 °F - 50.0 °F 41% 29.70 in 10.0 mi Calm Calm - N/A   Clear
9:52 PM 72.0 °F - 50.0 °F 46% 29.72 in 10.0 mi Calm Calm - N/A   Clear
10:52 PM 66.9 °F - 50.0 °F 54% 29.71 in 10.0 mi NNE 4.6 mph - N/A   Clear
11:52 PM 64.0 °F - 50.0 °F 60% 29.71 in 10.0 mi WNW 3.5 mph - N/A   Clear